Weather History for Greenville Downtown, SC

Change the Weather History Date:

Sunday, March 17, 2013

  Actual Average Record
Temperature  
Mean Temperature 66 °F -  
Max Temperature 78 °F 60 °F 81 °F (2012)
Min Temperature 50 °F 41 °F 32 °F (1993)
Growing Degree Days 16 (Base 50)    
Moisture  
Dew Point 43 °F    
Average Humidity 47    
Maximum Humidity 68    
Minimum Humidity 31    
Precipitation  
Precipitation 0.00 in - - ()
Sea Level Pressure  
Sea Level Pressure 29.93 in    
Wind  
Wind Speed 8 mph (SW)    
Max Wind Speed 20 mph    
Max Gust Speed 24 mph    
Visibility 10 miles    
Events      
Averages and records for this station are not official NWS values.
T = Trace of Precipitation, MM = Missing Value Source: NWS Daily Summary

Daily Weather History Graph

Daily Weather History Graph

Search for Another Location

Airport:

Trip Planner

Search our weather history database for the weather conditions in past years. The results will help you decide how hot, cold, wet, or windy it might be!

Date:

Astronomy

Mar. 17, 2013 Rise Set
Actual Time 7:36 AM EDT 7:38 PM EDT
Civil Twilight 7:11 AM EDT 8:04 PM EDT
Nautical Twilight 6:42 AM EDT 8:33 PM EDT
Astronomical Twilight 6:12 AM EDT 9:03 PM EDT
Moon 11:01 AM EDT (3/17) 12:33 AM EDT (3/17)
Length of Visible Light 12h 52m
Length of Day
12h 01m
Waxing Crescent, 31% of the Moon is Illuminated
Mar 17
Waxing Crescent
Mar 19
First Quarter
Mar 27
Full
Apr 3
Last Quarter
Apr 10
New

Hourly Weather History & Observations

Time (EDT) Temp. Dew Point Humidity Pressure Visibility Wind Dir Wind Speed Gust Speed Precip Events Conditions
12:53 AM 63.0 °F 37.9 °F 40% 29.90 in 10.0 mi SW 6.9 mph - N/A   Clear
1:53 AM 62.1 °F 37.9 °F 41% 29.91 in 10.0 mi WSW 8.1 mph - N/A   Clear
2:53 AM 60.1 °F 39.0 °F 46% 29.92 in 10.0 mi West 5.8 mph - N/A   Clear
3:53 AM 60.1 °F 39.0 °F 46% 29.91 in 10.0 mi West 4.6 mph - N/A   Clear
4:53 AM 57.9 °F 39.0 °F 49% 29.89 in 10.0 mi Calm Calm - N/A   Clear
5:53 AM 57.0 °F 39.9 °F 53% 29.91 in 10.0 mi West 3.5 mph - N/A   Clear
6:53 AM 55.9 °F 39.9 °F 55% 29.92 in 10.0 mi Calm Calm - N/A   Clear
7:53 AM 54.0 °F 39.9 °F 59% 29.94 in 10.0 mi SW 3.5 mph - N/A   Clear
8:53 AM 57.9 °F 42.1 °F 56% 29.95 in 10.0 mi WSW 5.8 mph - N/A   Clear
9:53 AM 63.0 °F 42.1 °F 46% 29.96 in 10.0 mi WSW 10.4 mph - N/A   Clear
10:53 AM 68.0 °F 44.1 °F 42% 29.96 in 10.0 mi WSW 10.4 mph - N/A   Clear
11:53 AM 72.0 °F 45.0 °F 38% 29.95 in 10.0 mi West 9.2 mph - N/A   Clear
12:53 PM 73.9 °F 45.0 °F 35% 29.93 in 10.0 mi SSW 9.2 mph - N/A   Clear
1:53 PM 77.0 °F 44.1 °F 31% 29.90 in 10.0 mi WSW 10.4 mph 17.3 mph N/A   Clear
2:53 PM 75.0 °F 43.0 °F 32% 29.89 in 10.0 mi SW 12.7 mph 20.7 mph N/A   Clear
3:53 PM 73.0 °F 45.0 °F 37% 29.88 in 10.0 mi SW 13.8 mph 24.2 mph N/A   Clear
4:53 PM 73.9 °F 42.1 °F 32% 29.89 in 10.0 mi SW 13.8 mph 19.6 mph N/A   Partly Cloudy
5:53 PM 72.0 °F 45.0 °F 38% 29.89 in 10.0 mi SW 11.5 mph 21.9 mph N/A   Clear
6:53 PM 70.0 °F 46.0 °F 42% 29.90 in 10.0 mi SW 9.2 mph - N/A   Clear
7:53 PM 68.0 °F 46.0 °F 45% 29.93 in 10.0 mi SSW 8.1 mph - N/A   Clear
8:53 PM 66.9 °F 48.9 °F 52% 29.94 in 10.0 mi South 9.2 mph - N/A   Clear
9:53 PM 64.9 °F 48.9 °F 56% 29.98 in 10.0 mi SSW 4.6 mph - N/A   Clear
10:23 PM 59.0 °F 46.4 °F 63% 30.01 in 10.0 mi NNE 18.4 mph - N/A   Overcast
10:53 PM 55.0 °F 44.1 °F 67% 30.02 in 10.0 mi NE 19.6 mph - N/A   Mostly Cloudy
11:53 PM 50.0 °F 39.9 °F 68% 30.05 in 10.0 mi NE 16.1 mph 23.0 mph N/A   Mostly Cloudy